When you browse on this site, cookies collect data to enhance your experience and personalize the content and advertising you see.
Visit our Privacy Policy to learn more. By continuing to use the site, you agree to this use of cookies and data.
  • en France
  • Liste des pays
  • À 7 jours
  • Température de l'eau
  • Carte météo
  • Widgets météo
  • user-avatar
    Se connecter

    Météo par heure à Natal

    Ce jour, 21 Novembre, Jeudi

    Heure Température Précipitation Vent Pression Humidité
    00:00 +27°C° 0 mm 6 m/s 758 mmHg 80%
    01:00 +26°C° 0 mm 6 m/s 758 mmHg 81%
    02:00 +27°C° 0.1 mm 6 m/s 758 mmHg 80%
    03:00 +27°C° 0.1 mm 6 m/s 758 mmHg 80%
    04:00 +27°C° 0.1 mm 6 m/s 758 mmHg 80%
    05:00 +27°C° 0.1 mm 6 m/s 758 mmHg 78%
    06:00 +27°C° 0.1 mm 5 m/s 758 mmHg 77%
    07:00 +27°C° 0.1 mm 5 m/s 758 mmHg 75%
    08:00 +28°C° 0.1 mm 6 m/s 759 mmHg 69%
    09:00 +30°C° 0.1 mm 6 m/s 759 mmHg 63%
    10:00 +32°C° 0.1 mm 6 m/s 759 mmHg 57%
    11:00 +33°C° 0 mm 6 m/s 759 mmHg 57%
    12:00 +33°C° 0 mm 6 m/s 758 mmHg 56%
    13:00 +33°C° 0 mm 6 m/s 758 mmHg 56%
    14:00 +33°C° 0 mm 6 m/s 757 mmHg 58%
    15:00 +32°C° 0 mm 6 m/s 757 mmHg 60%
    16:00 +32°C° 0 mm 6 m/s 756 mmHg 62%
    17:00 +30°C° 0 mm 6 m/s 756 mmHg 67%
    18:00 +29°C° 0 mm 6 m/s 757 mmHg 72%
    19:00 +28°C° 0 mm 5 m/s 757 mmHg 77%
    20:00 +27°C° 0 mm 5 m/s 757 mmHg 78%
    21:00 +27°C° 0 mm 5 m/s 758 mmHg 79%
    22:00 +27°C° 0 mm 5 m/s 758 mmHg 80%
    23:00 +27°C° 0 mm 5 m/s 758 mmHg 81%

    Demain, 22 Novembre, Vendredi

    Heure Température Précipitation Vent Pression Humidité
    00:00 +26°C° 0 mm 5 m/s 757 mmHg 82%
    01:00 +26°C° 0 mm 5 m/s 757 mmHg 83%
    02:00 +26°C° 0 mm 5 m/s 757 mmHg 83%
    03:00 +26°C° 0 mm 5 m/s 757 mmHg 83%
    04:00 +26°C° 0 mm 5 m/s 757 mmHg 84%
    05:00 +26°C° 0 mm 5 m/s 757 mmHg 81%
    06:00 +27°C° 0 mm 5 m/s 757 mmHg 79%
    07:00 +27°C° 0 mm 5 m/s 758 mmHg 77%
    08:00 +28°C° 0 mm 5 m/s 758 mmHg 73%
    09:00 +29°C° 0 mm 5 m/s 758 mmHg 68%
    10:00 +30°C° 0 mm 5 m/s 759 mmHg 64%
    11:00 +32°C° 0 mm 5 m/s 758 mmHg 61%
    12:00 +32°C° 0 mm 5 m/s 758 mmHg 59%
    13:00 +33°C° 0 mm 5 m/s 757 mmHg 56%
    14:00 +32°C° 0 mm 5 m/s 757 mmHg 58%
    15:00 +32°C° 0 mm 5 m/s 757 mmHg 59%
    16:00 +32°C° 0 mm 5 m/s 756 mmHg 60%
    17:00 +30°C° 0 mm 5 m/s 756 mmHg 65%
    18:00 +29°C° 0 mm 5 m/s 757 mmHg 70%
    19:00 +28°C° 0 mm 5 m/s 757 mmHg 75%
    20:00 +27°C° 0 mm 5 m/s 757 mmHg 76%
    21:00 +27°C° 0 mm 5 m/s 758 mmHg 78%
    22:00 +27°C° 0 mm 5 m/s 758 mmHg 79%
    23:00 +27°C° 0 mm 5 m/s 758 mmHg 80%

    Après-demain, 23 Novembre, Samedi

    Heure Température Précipitation Vent Pression Humidité
    00:00 +26°C° 0 mm 5 m/s 758 mmHg 81%
    01:00 +26°C° 0 mm 5 m/s 757 mmHg 81%
    02:00 +26°C° 0 mm 5 m/s 757 mmHg 82%
    03:00 +26°C° 0 mm 4 m/s 757 mmHg 84%
    04:00 +26°C° 0 mm 4 m/s 757 mmHg 85%
    05:00 +26°C° 0 mm 5 m/s 757 mmHg 83%
    06:00 +27°C° 0 mm 5 m/s 757 mmHg 81%
    07:00 +27°C° 0 mm 5 m/s 758 mmHg 79%
    08:00 +28°C° 0 mm 5 m/s 758 mmHg 74%
    09:00 +29°C° 0 mm 5 m/s 759 mmHg 70%
    10:00 +29°C° 0 mm 5 m/s 759 mmHg 66%
    11:00 +30°C° 0 mm 5 m/s 759 mmHg 63%
    12:00 +32°C° 0 mm 5 m/s 758 mmHg 60%
    13:00 +33°C° 0 mm 5 m/s 758 mmHg 57%
    14:00 +32°C° 0 mm 5 m/s 757 mmHg 58%
    15:00 +32°C° 0 mm 5 m/s 757 mmHg 59%
    16:00 +32°C° 0 mm 5 m/s 756 mmHg 60%
    17:00 +29°C° 0 mm 5 m/s 756 mmHg 66%
    18:00 +28°C° 0 mm 5 m/s 757 mmHg 71%
    19:00 +27°C° 0 mm 4 m/s 757 mmHg 77%
    20:00 +27°C° 0 mm 4 m/s 757 mmHg 79%
    21:00 +26°C° 0 mm 4 m/s 758 mmHg 81%
    22:00 +26°C° 0 mm 4 m/s 758 mmHg 83%
    23:00 +26°C° 0 mm 4 m/s 758 mmHg 84%

    24 Novembre, Dimanche

    Heure Température Précipitation Vent Pression Humidité
    00:00 +26°C° 0 mm 4 m/s 757 mmHg 85%
    01:00 +26°C° 0 mm 4 m/s 757 mmHg 87%
    02:00 +26°C° 0 mm 4 m/s 757 mmHg 85%
    03:00 +26°C° 0 mm 4 m/s 756 mmHg 84%
    04:00 +26°C° 0 mm 4 m/s 756 mmHg 83%
    05:00 +27°C° 0 mm 3 m/s 756 mmHg 81%
    06:00 +27°C° 0 mm 3 m/s 757 mmHg 79%
    07:00 +27°C° 0 mm 3 m/s 757 mmHg 78%
    08:00 +28°C° 0.1 mm 3 m/s 758 mmHg 73%
    09:00 +30°C° 0.1 mm 3 m/s 758 mmHg 68%
    10:00 +31°C° 0.1 mm 3 m/s 758 mmHg 63%
    11:00 +32°C° 0 mm 4 m/s 758 mmHg 60%
    12:00 +33°C° 0 mm 4 m/s 757 mmHg 58%
    13:00 +34°C° 0 mm 4 m/s 757 mmHg 55%
    14:00 +33°C° 0 mm 4 m/s 756 mmHg 57%
    15:00 +33°C° 0 mm 4 m/s 756 mmHg 58%
    16:00 +33°C° 0 mm 4 m/s 755 mmHg 60%
    17:00 +32°C° 0 mm 4 m/s 755 mmHg 65%
    18:00 +29°C° 0 mm 4 m/s 756 mmHg 71%
    19:00 +28°C° 0 mm 3 m/s 756 mmHg 76%
    20:00 +28°C° 0 mm 4 m/s 756 mmHg 77%
    21:00 +28°C° 0 mm 4 m/s 757 mmHg 78%
    22:00 +28°C° 0 mm 4 m/s 757 mmHg 79%
    23:00 +28°C° 0 mm 4 m/s 757 mmHg 81%

    25 Novembre, Lundi

    Heure Température Précipitation Vent Pression Humidité
    00:00 +27°C° 0 mm 4 m/s 756 mmHg 83%
    01:00 +27°C° 0 mm 4 m/s 756 mmHg 86%
    02:00 +27°C° 0 mm 3 m/s 756 mmHg 84%
    03:00 +28°C° 0 mm 3 m/s 756 mmHg 82%
    04:00 +28°C° 0 mm 3 m/s 755 mmHg 80%
    05:00 +28°C° 0.1 mm 3 m/s 756 mmHg 79%
    06:00 +28°C° 0.1 mm 3 m/s 757 mmHg 78%
    07:00 +28°C° 0.1 mm 3 m/s 757 mmHg 77%
    08:00 +30°C° 0.1 mm 3 m/s 758 mmHg 71%
    09:00 +32°C° 0.1 mm 4 m/s 758 mmHg 66%
    10:00 +33°C° 0.1 mm 4 m/s 758 mmHg 60%
    11:00 +33°C° 0 mm 4 m/s 758 mmHg 58%
    12:00 +34°C° 0 mm 4 m/s 757 mmHg 57%
    13:00 +34°C° 0 mm 5 m/s 756 mmHg 56%
    14:00 +34°C° 0 mm 5 m/s 756 mmHg 58%
    15:00 +33°C° 0 mm 4 m/s 755 mmHg 60%
    16:00 +33°C° 0 mm 4 m/s 755 mmHg 62%
    17:00 +32°C° 0 mm 5 m/s 755 mmHg 67%
    18:00 +29°C° 0 mm 5 m/s 755 mmHg 72%
    19:00 +28°C° 0 mm 5 m/s 756 mmHg 77%
    20:00 +28°C° 0 mm 5 m/s 756 mmHg 78%
    21:00 +28°C° 0 mm 5 m/s 756 mmHg 80%
    22:00 +28°C° 0 mm 5 m/s 757 mmHg 81%
    23:00 +28°C° 0 mm 4 m/s 757 mmHg 81%

    26 Novembre, Mardi

    Heure Température Précipitation Vent Pression Humidité
    00:00 +28°C° 0 mm 4 m/s 756 mmHg 81%
    01:00 +28°C° 0 mm 4 m/s 756 mmHg 81%
    02:00 +28°C° 0.1 mm 4 m/s 756 mmHg 82%
    03:00 +27°C° 0.1 mm 4 m/s 756 mmHg 83%
    04:00 +27°C° 0.1 mm 3 m/s 755 mmHg 83%
    05:00 +28°C° 0.1 mm 3 m/s 756 mmHg 80%
    06:00 +28°C° 0.1 mm 3 m/s 756 mmHg 77%
    07:00 +29°C° 0.1 mm 3 m/s 757 mmHg 74%
    08:00 +30°C° 0.1 mm 3 m/s 757 mmHg 68%
    09:00 +32°C° 0.1 mm 4 m/s 757 mmHg 62%
    10:00 +33°C° 0.1 mm 4 m/s 758 mmHg 56%
    11:00 +33°C° 0 mm 4 m/s 757 mmHg 56%
    12:00 +33°C° 0 mm 4 m/s 757 mmHg 56%
    13:00 +33°C° 0 mm 5 m/s 756 mmHg 56%
    14:00 +33°C° 0 mm 5 m/s 756 mmHg 57%
    15:00 +33°C° 0 mm 5 m/s 756 mmHg 57%
    16:00 +33°C° 0 mm 5 m/s 756 mmHg 58%
    17:00 +32°C° 0 mm 4 m/s 756 mmHg 62%
    18:00 +30°C° 0 mm 4 m/s 756 mmHg 67%
    19:00 +29°C° 0 mm 4 m/s 757 mmHg 71%
    20:00 +29°C° 0 mm 4 m/s 757 mmHg 73%
    21:00 +28°C° 0 mm 4 m/s 757 mmHg 74%
    22:00 +28°C° 0 mm 4 m/s 758 mmHg 76%
    23:00 +28°C° 0 mm 4 m/s 757 mmHg 77%
    Voir plus